Weather History for Philip, SD

Change the Weather History Date:

Tuesday, August 28, 2012

  Actual Average Record
Temperature  
Mean Temperature 85 °F 70 °F  
Max Temperature 105 °F 86 °F 105 °F (1969)
Min Temperature 64 °F 55 °F 37 °F (1988)
Degree Days  
Heating Degree Days 0 1  
Month to date heating degree days 5 8  
Since 1 June heating degree days 16 79  
Since 1 July heating degree days 5 16  
Cooling Degree Days 20 7  
Month to date cooling degree days 233 261  
Year to date cooling degree days 1059 716  
Since 1 June cooling degree days 1002 689  
Growing Degree Days 34 (Base 50)    
Moisture  
Dew Point 52 °F    
Average Humidity 39    
Maximum Humidity 67    
Minimum Humidity 11    
Precipitation  
Precipitation 0.00 in 0.05 in 0.28 in (2001)
Month to date precipitation 0.40 1.35  
Year to date precipitation 5.99 13.23  
Sea Level Pressure  
Sea Level Pressure 29.84 in    
Wind  
Wind Speed 7 mph (ENE)    
Max Wind Speed 15 mph    
Max Gust Speed 21 mph    
Visibility 10 miles    
Events      
T = Trace of Precipitation, MM = Missing Value Source: NWS Daily Summary

Daily Weather History Graph

Daily Weather History Graph

Search for Another Location

Airport:

Trip Planner

Search our weather history database for the weather conditions in past years. The results will help you decide how hot, cold, wet, or windy it might be!

Date:

Astronomy

Aug. 28, 2012 Rise Set
Actual Time 6:05 AM MDT 7:28 PM MDT
Civil Twilight 5:35 AM MDT 7:58 PM MDT
Nautical Twilight 4:59 AM MDT 8:34 PM MDT
Astronomical Twilight 4:20 AM MDT 9:12 PM MDT
Moon 5:35 PM MDT (8/28) 2:52 AM MDT (8/28)
Length of Visible Light 14h 22m
Length of Day
13h 22m
Waxing Gibbous, 91% of the Moon is Illuminated
Aug 28
Waxing Gibbous
Aug 31
Full
Sep 8
Last Quarter
Sep 15
New
Sep 22
First Quarter

Hourly Weather History & Observations

Time (MDT) Temp. Heat Index Dew Point Humidity Pressure Visibility Wind Dir Wind Speed Gust Speed Precip Events Conditions
12:55 AM 80.1 °F 80.0 °F 54.0 °F 40% 29.87 in 10.0 mi East 5.8 mph - N/A   Clear
1:55 AM 78.1 °F - 55.0 °F 45% 29.85 in 10.0 mi SSE 8.1 mph - N/A   Clear
2:55 AM 73.9 °F - 55.0 °F 52% 29.83 in 10.0 mi SSE 4.6 mph - N/A   Clear
3:55 AM 71.1 °F - 54.0 °F 55% 29.82 in 10.0 mi Calm Calm - N/A   Clear
4:55 AM 66.9 °F - 54.0 °F 63% 29.82 in 10.0 mi West 5.8 mph - N/A   Clear
5:55 AM 68.0 °F - 53.1 °F 59% 29.84 in 10.0 mi WNW 9.2 mph - N/A   Clear
6:55 AM 64.9 °F - 53.1 °F 65% 29.87 in 10.0 mi WNW 3.5 mph - N/A   Clear
7:55 AM 72.0 °F - 53.1 °F 51% 29.89 in 10.0 mi West 5.8 mph - N/A   Clear
8:55 AM 80.1 °F - 51.1 °F 36% 29.90 in 10.0 mi Calm Calm - N/A   Clear
9:55 AM 84.0 °F - 52.0 °F 33% 29.91 in 10.0 mi West 4.6 mph - N/A   Clear
10:55 AM 88.0 °F 85.7 °F 53.1 °F 30% 29.91 in 10.0 mi North 6.9 mph - N/A   Clear
11:55 AM 91.9 °F 89.5 °F 54.0 °F 27% 29.88 in 10.0 mi Variable 3.5 mph - N/A   Clear
12:55 PM 98.1 °F - 52.0 °F 21% 29.86 in 10.0 mi ENE 8.1 mph - N/A   Clear
1:55 PM 102.0 °F - 42.1 °F 13% 29.83 in 10.0 mi East 6.9 mph - N/A   Clear
2:55 PM 104.0 °F - 39.9 °F 11% 29.81 in 10.0 mi Variable 5.8 mph - N/A   Clear
3:55 PM 105.1 °F - 44.1 °F 13% 29.80 in 10.0 mi NE 11.5 mph - N/A   Clear
4:55 PM 102.9 °F - 48.9 °F 16% 29.80 in 10.0 mi ENE 8.1 mph 16.1 mph N/A   Clear
5:55 PM 100.0 °F - 45.0 °F 15% 29.79 in 10.0 mi ENE 10.4 mph - N/A   Clear
6:55 PM 93.9 °F - 48.9 °F 21% 29.80 in 10.0 mi ENE 10.4 mph - N/A   Clear
7:55 PM 86.0 °F - 52.0 °F 31% 29.81 in 10.0 mi East 10.4 mph - N/A   Clear
8:55 PM 82.9 °F 82.0 °F 55.0 °F 38% 29.82 in 10.0 mi East 11.5 mph - N/A   Clear
9:55 PM 80.1 °F 80.6 °F 57.9 °F 47% 29.82 in 10.0 mi ENE 9.2 mph - N/A   Clear
10:55 PM 79.0 °F - 63.0 °F 58% 29.83 in 10.0 mi East 10.4 mph - N/A   Clear
11:55 PM 77.0 °F - 63.0 °F 62% 29.85 in 10.0 mi East 6.9 mph - N/A   Clear